Simultaneous Nadir Overpasses (SNOs) Predictions

Prediction of SNOs between GOES-15 and METOP-B Satellite Orbit:

Table of predicted SNOs for the next 14.0 days since TLE Epoch: 1/13/2017
Index Date Time (GOES-15) GOES-15 Lat,Lon METOP-B Lat,Lon Distance(km) Time Diff (sec)
1 01/13/2017 18:47:07 -0.02,-134.85 0.79,-138.40 404.86 80
2 01/14/2017 18:23:47 -0.02,-134.89 -0.35,-133.41 168.76 80
3 01/16/2017 06:45:27 0.01,-134.98 -0.66,-138.00 344.06 80
4 01/17/2017 06:22:07 0.01,-135.02 0.48,-133.01 229.19 80
5 01/18/2017 18:43:37 -0.00,-135.04 0.58,-137.56 287.56 80
6 01/19/2017 18:20:18 -0.01,-135.07 -0.57,-132.57 285.61 80
7 01/21/2017 06:41:57 0.00,-135.16 -0.44,-137.16 227.93 80
8 01/22/2017 06:18:38 0.01,-135.19 0.71,-132.17 344.65 80
9 01/23/2017 18:40:08 -0.00,-135.20 0.36,-136.72 173.50 80
10 01/24/2017 18:16:49 -0.01,-135.23 -0.79,-131.73 398.89 80
11 01/26/2017 06:38:28 -0.00,-135.30 -0.21,-136.32 115.72 80




NCC Satellite Simultaneous Nadir Overpasses (SNOs) Prediction Service
